CUTE-1 (CO-55) 1 27844U 03031E 25259.53984461 .00000292 00000+0 14605-3 0 9996 2 27844 98.6791 266.5517 0008434 259.3858 100.6371 14.24068138152720 CUBESAT XI-IV (CO-57) 1 27848U 03031J 25259.46450389 .00000258 00000+0 13321-3 0 9995 2 27848 98.6822 266.4077 0008343 279.7357 80.2879 14.23392703152439 CUBESAT XI-V 1 28895U 05043F 25259.34285967 .00001584 00000+0 26428-3 0 9993 2 28895 98.2637 45.0231 0014279 358.6596 1.4569 14.71343683 61461 CUTE-1.7+APD II (CO-65) 1 32785U 08021C 25259.54615987 .00006546 00000+0 46022-3 0 9991 2 32785 97.7953 231.5583 0008116 231.0595 128.9909 15.05416953943963 CANX-2 1 32790U 08021H 25259.49525196 .00003564 00000+0 27302-3 0 9990 2 32790 97.8296 230.0967 0008628 243.1386 116.8957 15.02491536943663 SEEDS II (CO-66) 1 32791U 08021J 25259.39899909 .00015573 00000+0 70205-3 0 9999 2 32791 97.7370 241.8490 0004440 147.4420 212.7089 15.21120492945508 SWISSCUBE 1 35932U 09051B 25259.42724954 .00001168 00000+0 24511-3 0 9998 2 35932 98.4167 157.4635 0006907 356.6636 3.4517 14.61560898849152 BEESAT-1 1 35933U 09051C 25259.44227225 .00000962 00000+0 20645-3 0 9995 2 35933 98.4098 157.6547 0005677 12.6621 347.4721 14.60940714849208 ITUPSAT1 1 35935U 09051E 25258.99260324 .00000832 00000+0 18469-3 0 9990 2 35935 98.4191 156.6559 0008096 18.6586 341.4908 14.59722619848727 TISAT 1 1 36799U 10035E 25258.76436986 .00016383 00000+0 78523-3 0 9992 2 36799 98.0519 179.0562 0005466 107.3602 252.8229 15.18994654825869 AEROCUBE 4.5A 1 38767U 12048K 25259.06678139 .00037468 00000+0 85838-3 0 9991 2 38767 64.6445 256.0182 0090127 252.3467 106.7811 15.38336579329945 STRAND-1 1 39090U 13009E 25259.49007532 .00000303 00000+0 11692-3 0 9994 2 39090 98.3854 81.6140 0008199 336.5295 23.5517 14.36888833657755 BRITE-AUSTRIA 1 39091U 13009F 25259.32230949 .00000192 00000+0 80056-4 0 9994 2 39091 98.3916 80.6910 0009865 344.5801 15.5083 14.36357901657736 NEE-01 PEGASO 1 39151U 13018B 25259.29794847 .00003216 00000+0 32763-3 0 9990 2 39151 98.0853 30.4620 0012838 350.5070 9.5902 14.91392344669849 POPACS 1 1 39268U 13055D 25258.17042144 .00150667 49049-5 10013-2 0 9990 2 39268 80.9648 325.3458 0190386 3.7115 356.5489 15.54499543629713 POPACS 2 1 39269U 13055E 25259.27608552 .00019221 00000+0 36659-3 0 9997 2 39269 80.9928 95.1097 0463985 346.7996 12.1388 14.79001928622540 POPACS 3 1 39270U 13055F 25259.45436682 .00010535 00000+0 26279-3 0 9998 2 39270 81.0061 164.6095 0576907 179.9900 180.1418 14.49718542598807 ZACUBE-1 (TSHEPISOSAT) 1 39417U 13066B 25259.44174845 .00006227 00000+0 52748-3 0 9995 2 39417 97.7905 216.0314 0045883 81.9612 278.6812 14.97526757639707 WNISAT-1 1 39423U 13066H 25259.40451203 .00000619 00000+0 12249-3 0 9995 2 39423 97.6878 63.7028 0165261 14.7236 345.8694 14.57307302626845 TRITON-1 1 39427U 13066M 25259.63302194 .00003776 00000+0 47395-3 0 9995 2 39427 97.8281 170.8901 0094959 45.5896 315.3039 14.79565915633605 GOMX-1 1 39430U 13066Q 25259.53672103 .00002101 00000+0 33047-3 0 9998 2 39430 97.6723 112.1017 0130378 235.3033 123.5834 14.68002679629746 CUBEBUG-2 (LO-74) 1 39440U 13066AA 25259.57951721 .00003454 00000+0 34633-3 0 9993 2 39440 97.8551 203.5283 0060065 211.8066 147.9520 14.90677359636184 NEE-02 KRYSAOR 1 39441U 13066AB 25259.26005436 .00002346 00000+0 27200-3 0 9994 2 39441 97.8589 196.1986 0066719 246.8505 112.5670 14.84843649635522 FUNCUBE-1 (AO-73) 1 39444U 13066AE 25259.35017054 .00009373 00000+0 67516-3 0 9997 2 39444 97.7925 221.7698 0043304 55.4239 305.1060 15.03640356638423 UWE-3 1 39446U 13066AG 25259.57523639 .00003564 00000+0 33334-3 0 9991 2 39446 97.8316 210.0378 0053187 148.7103 211.7301 14.93683682636685 BRITE-CA1 (TORONTO) 1 40020U 14033L 25259.15654618 .00001059 00000+0 16870-3 0 9995 2 40020 97.9389 28.8943 0081006 74.4819 286.5315 14.71851345601898 DUCHIFAT-1 1 40021U 14033M 25259.57717878 .00025579 00000+0 80637-3 0 9995 2 40021 98.0929 282.8047 0006314 347.2312 12.8767 15.32863298613461 NANOSATC-BR1 1 40024U 14033Q 25259.52107903 .00014472 00000+0 66015-3 0 9999 2 40024 98.0949 264.5040 0006522 69.9666 290.2270 15.20732213612231 QB50P1 1 40025U 14033R 25259.40189213 .00009717 00000+0 56891-3 0 9998 2 40025 98.0919 247.6357 0012267 82.8264 277.4359 15.11992917611562 QB50P2 1 40032U 14033Y 25259.38429951 .00008211 00000+0 51380-3 0 9995 2 40032 98.0539 235.6375 0009647 39.9890 320.2046 15.09652711611271 PERSEUS-M2 1 40037U 14033AD 25259.63425140 .00001695 00000+0 16398-3 0 9993 2 40037 97.9600 200.4499 0013533 122.2146 238.0388 14.94086317609918 PERSEUS-M1 1 40039U 14033AF 25259.55378156 .00001851 00000+0 17850-3 0 9998 2 40039 97.9323 194.9836 0013318 121.0219 239.2310 14.94096324609752 POLYITAN-1 1 40042U 14033AJ 25259.52316269 .00016798 00000+0 75319-3 0 9996 2 40042 98.1097 257.1211 0010328 35.3925 324.7992 15.21257720611811 TIGRISAT 1 40043U 14033AK 25259.37090376 .00002727 00000+0 33188-3 0 9993 2 40043 97.7482 51.5715 0049807 252.0697 107.5083 14.83377973605000 AEROCUBE 6A 1 40045U 14033AM 25259.40038319 .00007655 00000+0 72225-3 0 9998 2 40045 97.7017 65.5015 0041758 209.6866 150.1983 14.93379521605686 AEROCUBE 6B 1 40046U 14033AN 25259.44960360 .00008015 00000+0 73328-3 0 9999 2 40046 97.6996 64.8332 0040518 202.5467 157.3975 14.94614697605797 CANX-4 1 40055U 14034C 25259.57480190 .00000968 00000+0 13406-3 0 9992 2 40055 98.3492 119.3343 0013175 164.4784 195.6833 14.80429737604039 CANX-5 1 40056U 14034D 25259.57626070 .00000976 00000+0 13499-3 0 9993 2 40056 98.3495 119.3634 0013167 164.6780 195.4832 14.80445156594842 UKUBE-1 1 40074U 14037F 25259.48802639 .00009626 00000+0 64647-3 0 9995 2 40074 98.4029 230.5969 0002878 57.5116 302.6387 15.07043217607230 BRITE-PL2 (HEWELIUSZ) 1 40119U 14049B 25259.55918142 .00001937 00000+0 19187-3 0 9999 2 40119 97.8951 5.0565 0013277 299.1680 60.8210 14.92976768600598 AEROCUBE 5C 1 40965U 15058B 25259.55194275 .00006020 00000+0 52804-3 0 9993 2 40965 64.7693 32.5915 0150326 167.7084 192.7762 14.89201853324875 AEROCUBE 7 1 40966U 15058C 25259.59597581 .00007671 00000+0 62341-3 0 9995 2 40966 64.7654 20.0132 0141293 167.6300 192.8343 14.92710410325076 FOX-1A (AO-85) 1 40967U 15058D 25259.57565916 .00005788 00000+0 52037-3 0 9999 2 40967 64.7764 47.9943 0146741 162.1395 198.4954 14.88688074 72809 SINOD-D 1 1 40968U 15058E 25259.59923826 .00007746 00000+0 63787-3 0 9990 2 40968 64.7772 33.8651 0135751 160.8992 199.7284 14.92762260 75770 SNAP-3 ALICE 1 40970U 15058G 25259.56900066 .00027471 00000+0 10200-2 0 9999 2 40970 64.7638 301.7435 0063065 162.0771 198.2604 15.25609834 74748 LMRST-SAT 1 40971U 15058H 25259.60001999 .00005294 00000+0 47783-3 0 9998 2 40971 64.7767 43.7786 0149251 163.7216 196.8768 14.88393637 72807 SNAP-3 EDDIE 1 40972U 15058J 25259.39031167 .00028883 00000+0 10463-2 0 9998 2 40972 64.7559 294.5591 0067443 164.4707 195.8514 15.26124680 76830 PROPCUBE 3 1 40973U 15058K 25259.59645481 .00006659 00000+0 55775-3 0 9994 2 40973 64.7707 25.7798 0143207 165.8296 194.6902 14.91541028 73958 BISONSAT 1 40974U 15058L 25259.55923828 .00013425 00000+0 77630-3 0 9998 2 40974 64.7640 333.2418 0102505 164.0938 196.3444 15.08133510 74235 SNAP-3 JIMI 1 40975U 15058M 25259.58192002 .00009666 00000+0 70230-3 0 9995 2 40975 64.7685 2.9246 0126610 164.8935 195.6019 14.98055905 73173 PROPCUBE 1 (FLORA) 1 40976U 15058N 25259.57885328 .00005213 00000+0 48814-3 0 9992 2 40976 64.7750 62.0220 0148921 165.6675 194.8732 14.87062558 75541 SINOD-D 3 1 40977U 15058P 25259.56547508 .00007329 00000+0 62904-3 0 9993 2 40977 64.7736 48.5626 0138180 164.9135 195.6165 14.91035797 73912 HORYU-4 1 41340U 16012D 25259.19288891 .00033943 00000+0 77869-3 0 9992 2 41340 30.9946 186.7462 0005987 355.4003 4.6588 15.41476440527997 RAVAN 1 41849U 16067B 25259.56011135 .00020113 00000+0 62782-3 0 9995 2 41849 98.0328 116.8915 0007080 245.9202 114.1298 15.33227081485496 CELTEE 1 1 41850U 16067C 25259.50004052 .00006254 00000+0 33295-3 0 9998 2 41850 98.1005 102.5570 0002454 92.1064 268.0447 15.15629690484360 OPTICUBE 04 1 41851U 16067D 25259.52221727 .00002363 00000+0 15886-3 0 9994 2 41851 98.0920 92.4272 0015426 326.7652 33.2605 15.07761935483901 AEROCUBE 8D 1 41852U 16067E 25259.51940802 .00008252 00000+0 39857-3 0 9993 2 41852 98.1030 104.2988 0004107 19.3138 340.8250 15.18932374484441 AEROCUBE 8C 1 41853U 16067F 25259.51597924 .00008639 00000+0 41522-3 0 9998 2 41853 98.0885 101.9163 0004659 290.0779 69.9952 15.19088967484437 PROMETHEUS 2-1 1 41854U 16067G 25259.57027378 .00085001 00000+0 10601-2 0 9997 2 41854 98.0609 125.2001 0003395 224.9056 135.1924 15.59602373485772 PROMETHEUS 2-3 1 41855U 16067H 25259.58149577 .00086541 00000+0 10800-2 0 9996 2 41855 98.0527 124.2763 0002507 223.9129 136.1926 15.59582003485770 CORVUS BC2 1 42846U 17042X 25259.42577506 .00004490 00000+0 33208-3 0 9992 2 42846 97.3808 67.3497 0013483 330.6340 29.4127 15.03598334445880 CORVUS BC1 1 42847U 17042Y 25259.46041311 .00003921 00000+0 28870-3 0 9994 2 42847 97.3863 67.9970 0010905 309.6662 50.3602 15.03858512445915 MIRATA 1 43015U 17073C 25258.98146528 .00216494 00000+0 17779-2 0 9994 2 43015 97.5183 159.2182 0056609 84.6390 276.1326 15.67671190426116 MAKERSAT 0 1 43016U 17073D 25259.61579820 .00017896 00000+0 67134-3 0 9997 2 43016 97.5014 136.9459 0139934 155.6683 205.1244 15.18498309424750 SIRION PATHFINDER-2 1 43759U 18099B 25259.36468862 .00006453 00000+0 39147-3 0 9995 2 43759 97.4681 309.9281 0010215 158.0891 202.0778 15.10828868371226 CORVUS BC4 1 43767U 18099K 25259.36593504 .00004702 00000+0 29944-3 0 9995 2 43767 97.4499 305.2793 0007994 215.5385 144.5312 15.09209286371056 SPACEBEE-7 1 43816U 18099BL 25259.48559882 .00050590 00000+0 11499-2 0 9995 2 43816 97.4856 331.9264 0006204 125.5567 234.6259 15.42827313372014 SHIELDS 1 1 43850U 18104B 25259.59807809 .00051510 00000+0 45617-3 0 9990 2 43850 85.0143 326.4941 0007233 120.9824 239.2155 15.68379541376937 DUCHIFAT-3 1 44854U 19089C 25259.50668232 .00084967 00000+0 11251-2 0 9992 2 44854 36.9378 82.0170 0006954 7.4409 352.6453 15.57095831318384 M2 PATHFINDER 1 45727U 20037E 25259.50677081 .00002671 00000+0 20442-3 0 9994 2 45727 97.8190 82.9421 0011864 7.0093 353.1295 15.02719330284368 NETSAT-4 1 46504U 20068U 25259.52874070 .00015952 00000+0 50472-3 0 9993 2 46504 97.8540 243.1585 0005946 192.4052 167.7043 15.32849613273696 NETSAT-3 1 46505U 20068V 25259.48734033 .00015402 00000+0 51089-3 0 9998 2 46505 97.8549 241.8219 0005194 205.9999 154.0981 15.31343831273634 NETSAT-1 1 46506U 20068W 25259.40779040 .00012154 00000+0 47591-3 0 9992 2 46506 97.8584 238.8041 0004390 231.3212 128.7632 15.25958060273428 NETSAT-2 1 46507U 20068X 25259.40693110 .00017673 00000+0 56119-3 0 9993 2 46507 97.8548 242.4723 0003201 217.1601 142.9419 15.32722330273610 WILDTRACKCUBE-SIMBA 1 47941U 21022K 25259.59612794 .00045331 00000+0 75583-3 0 9994 2 47941 97.4091 166.7079 0006028 330.7176 29.3738 15.51837767248518 LEDSAT 1 49069U 21073D 25259.50247461 .00235342 00000+0 11338-2 0 9999 2 49069 97.3767 346.3208 0001720 81.4283 278.7181 15.81989370226949 GREENCUBE (IO-117) 1 53109U 22080E 25258.33036862 -.00000003 00000+0 00000+0 0 9995 2 53109 70.1532 33.8110 0008548 348.4315 11.6148 6.42583778 74403 SITRO-AIS 5 (KATYS) 1 57176U 23091L 25259.59500577 .00010661 00000+0 47514-3 0 9999 2 57176 97.5487 316.7623 0012756 351.2342 8.8668 15.21537312122626 SITRO-AIS 6 (CHIRKIN) 1 57192U 23091AC 25259.59068842 .00006798 00000+0 30709-3 0 9995 2 57192 97.5487 316.7466 0012594 353.0589 7.0470 15.21223472122623 SITRO-AIS 8 (ANOKHIN) 1 57193U 23091AD 25259.59609728 .00011570 00000+0 49303-3 0 9994 2 57193 97.5484 317.4856 0011999 350.0436 10.0560 15.23053686122677 SITRO-AIS 7 (FARTUSHNIY) 1 57194U 23091AE 25259.55339485 .00006495 00000+0 29464-3 0 9997 2 57194 97.5488 316.6316 0012511 354.4544 5.6551 15.21101482122613 SITRO-AIS 10 (BURDAEV) 1 57199U 23091AK 25259.54601244 .00014831 00000+0 56510-3 0 9991 2 57199 97.5495 320.3087 0007538 332.5913 27.4927 15.26788355122842 SITRO-AIS 9 (SHCHUKIN) 1 57201U 23091AM 25259.57651719 .00014773 00000+0 56642-3 0 9991 2 57201 97.5494 320.2191 0007563 333.0736 27.0109 15.26582833122848 SITRO-AIS 12 (SMIRENNIY) 1 57204U 23091AQ 25259.54543914 .00014821 00000+0 56478-3 0 9999 2 57204 97.5502 320.5133 0007304 325.4307 34.6456 15.26786851122858 SITRO-AIS 11 (SHEFFER) 1 57208U 23091AU 25259.54996608 .00014917 00000+0 56441-3 0 9991 2 57208 97.5501 320.6368 0007236 325.7943 34.2829 15.27023435122869 ROBUSTA-1E (ENSO) 1 58470U 23185J 25260.07852412 .00129111 00000+0 10358-2 0 9990 2 58470 97.3622 339.2192 0003259 94.0813 266.0822 15.70608781100569 SITRO-AIS 25 1 59066U 24039R 25259.68172859 .00007534 00000+0 62893-3 0 9992 2 59066 95.3853 47.5149 0153004 201.8455 157.6200 14.89959200 83941 SITRO-AIS 26 1 59067U 24039S 25259.65036660 .00007090 00000+0 59426-3 0 9994 2 59067 95.3860 47.4389 0153146 202.2705 157.1822 14.89808860 83934 SITRO-AIS 27 1 59068U 24039T 25259.69058174 .00007990 00000+0 66447-3 0 9993 2 59068 95.3855 47.6252 0152428 201.2718 158.2126 14.90146885 83950 SITRO-AIS 28 1 59071U 24039U 25259.60784883 .00007193 00000+0 59816-3 0 9998 2 59071 95.3855 47.6011 0152324 201.4951 157.9834 14.90185079 83942 GRBBETA 1 60237U 24128C 25258.99885995 .00004649 00000+0 34314-3 0 9999 2 60237 61.9902 96.2014 0056770 78.8030 281.9435 15.03471272 64992 OOV-CUBE (TUBSAT-30) 1 60240U 24128F 25259.29025558 .00002950 00000+0 23943-3 0 9997 2 60240 61.9946 99.3839 0057971 75.9989 284.7538 15.00797344 64979 ROBUSTA-3A (MEDITERRAN*) 1 60243U 24128J 25258.95718678 .00008153 00000+0 55066-3 0 9996 2 60243 61.9873 94.2303 0056076 73.0593 287.6636 15.06033393 65038 LASARSAT 1 62391U 24247Q 25259.27877668 .00021045 00000+0 74121-3 0 9993 2 62391 44.9820 341.2465 0008898 274.5026 85.4841 15.28984552 41154 CROCUBE 1 62394U 24247T 25259.25645674 .00022121 00000+0 77049-3 0 9992 2 62394 44.9777 341.0381 0009593 283.2633 76.7180 15.29314217 41152